Time,TemperatureF,DewpointF,PressureIn,WindDirection,WindDirectionDegrees,WindSpeedMPH,WindSpeedGustMPH,Humidity,HourlyPrecipIn,Conditions,Clouds,dailyrainin,SoftwareType,DateUTC
2013-07-26 00:04:00,83.4,77.0,30.02,West,266,5.0,5.0,81,0.00,,,0.00,Wunderground v.1.15,2013-07-26 04:04:00,
2013-07-26 00:10:00,83.3,77.2,30.02,North,358,5.0,6.0,82,0.00,,,0.00,Wunderground v.1.15,2013-07-26 04:10:00,
2013-07-26 00:20:00,83.1,77.0,30.02,NW,305,5.0,5.0,82,0.00,,,0.00,Wunderground v.1.15,2013-07-26 04:20:00,
2013-07-26 00:29:00,83.0,76.9,30.02,WSW,246,4.0,6.0,82,0.00,,,0.00,Wunderground v.1.15,2013-07-26 04:29:00,
2013-07-26 00:34:00,82.9,77.2,30.02,West,269,4.0,6.0,83,0.00,,,0.00,Wunderground v.1.15,2013-07-26 04:34:00,
2013-07-26 00:45:00,82.7,77.4,30.02,WSW,243,3.0,5.0,84,0.00,,,0.00,Wunderground v.1.15,2013-07-26 04:45:00,
2013-07-26 00:55:00,82.4,77.1,30.02,WSW,249,5.0,5.0,84,0.00,,,0.00,Wunderground v.1.15,2013-07-26 04:55:00,
2013-07-26 01:00:00,82.4,77.1,30.02,WSW,257,5.0,5.0,84,0.00,,,0.00,Wunderground v.1.15,2013-07-26 05:00:00,
2013-07-26 01:10:00,82.1,77.1,30.02,WSW,238,4.0,7.0,85,0.00,,,0.00,Wunderground v.1.15,2013-07-26 05:10:00,
2013-07-26 01:19:00,81.9,76.9,30.02,WNW,296,4.0,7.0,85,0.00,,,0.00,Wunderground v.1.15,2013-07-26 05:19:00,
2013-07-26 01:30:00,81.7,77.1,30.02,WSW,248,4.0,4.0,86,0.00,,,0.00,Wunderground v.1.15,2013-07-26 05:30:00,
2013-07-26 01:40:00,81.5,76.9,30.02,West,264,3.0,3.0,86,0.00,,,0.00,Wunderground v.1.15,2013-07-26 05:40:00,
2013-07-26 01:50:00,81.3,77.1,30.02,West,276,3.0,3.0,87,0.00,,,0.00,Wunderground v.1.15,2013-07-26 05:50:00,
2013-07-26 02:00:00,81.1,76.9,30.01,WNW,284,3.0,3.0,87,0.00,,,0.00,Wunderground v.1.15,2013-07-26 06:00:00,
2013-07-26 02:10:00,80.9,76.7,30.01,West,271,4.0,4.0,87,0.00,,,0.00,Wunderground v.1.15,2013-07-26 06:10:00,
2013-07-26 02:29:00,80.7,76.8,30.00,West,276,3.0,3.0,88,0.00,,,0.00,Wunderground v.1.15,2013-07-26 06:29:00,
2013-07-26 02:35:00,80.6,76.7,30.00,WNW,290,3.0,3.0,88,0.00,,,0.00,Wunderground v.1.15,2013-07-26 06:35:00,
2013-07-26 02:44:00,80.4,76.9,30.00,WSW,255,2.0,3.0,89,0.00,,,0.00,Wunderground v.1.15,2013-07-26 06:44:00,
2013-07-26 02:54:00,80.3,76.8,30.00,West,263,2.0,2.0,89,0.00,,,0.00,Wunderground v.1.15,2013-07-26 06:54:00,
2013-07-26 03:00:00,80.3,76.8,29.99,West,280,2.0,2.0,89,0.00,,,0.00,Wunderground v.1.15,2013-07-26 07:00:00,
2013-07-26 03:09:00,80.3,76.8,29.99,WSW,252,2.0,2.0,89,0.00,,,0.00,Wunderground v.1.15,2013-07-26 07:09:00,
2013-07-26 03:15:00,80.3,76.8,29.99,WSW,250,3.0,3.0,89,0.00,,,0.00,Wunderground v.1.15,2013-07-26 07:15:00,
2013-07-26 03:25:00,80.3,76.8,29.99,WSW,249,3.0,4.0,89,0.00,,,0.00,Wunderground v.1.15,2013-07-26 07:25:00,
2013-07-26 03:34:00,80.3,76.8,29.99,WNW,285,2.0,3.0,89,0.00,,,0.00,Wunderground v.1.15,2013-07-26 07:34:00,
2013-07-26 03:45:00,80.1,76.6,29.99,WSW,249,3.0,4.0,89,0.00,,,0.00,Wunderground v.1.15,2013-07-26 07:45:00,
2013-07-26 03:54:00,80.1,76.6,29.99,WSW,246,3.0,4.0,89,0.00,,,0.00,Wunderground v.1.15,2013-07-26 07:54:00,
2013-07-26 04:00:00,80.1,76.6,29.98,WSW,243,3.0,3.0,89,0.00,,,0.00,Wunderground v.1.15,2013-07-26 08:00:00,
2013-07-26 04:09:00,80.1,76.6,29.98,West,271,4.0,4.0,89,0.00,,,0.00,Wunderground v.1.15,2013-07-26 08:09:00,
2013-07-26 04:20:00,80.0,76.5,29.98,WSW,240,3.0,3.0,89,0.00,,,0.00,Wunderground v.1.15,2013-07-26 08:20:00,
2013-07-26 04:30:00,79.9,76.4,29.98,West,270,2.0,3.0,89,0.00,,,0.00,Wunderground v.1.15,2013-07-26 08:30:00,
2013-07-26 04:39:00,80.0,76.5,29.98,West,266,3.0,3.0,89,0.00,,,0.00,Wunderground v.1.15,2013-07-26 08:39:00,
2013-07-26 04:50:00,79.9,76.4,29.98,SW,233,3.0,3.0,89,0.00,,,0.00,Wunderground v.1.15,2013-07-26 08:50:00,
2013-07-26 05:00:00,79.8,75.9,29.98,West,264,3.0,4.0,88,0.00,,,0.00,Wunderground v.1.15,2013-07-26 09:00:00,
2013-07-26 05:09:00,79.9,76.0,29.99,West,278,4.0,4.0,88,0.00,,,0.00,Wunderground v.1.15,2013-07-26 09:09:00,
2013-07-26 05:19:00,79.6,76.1,29.99,West,259,3.0,3.0,89,0.00,,,0.00,Wunderground v.1.15,2013-07-26 09:19:00,
2013-07-26 05:24:00,79.5,76.0,29.99,WNW,291,2.0,5.0,89,0.00,,,0.00,Wunderground v.1.15,2013-07-26 09:24:00,
2013-07-26 05:30:00,79.4,76.2,30.00,West,266,3.0,3.0,90,0.00,,,0.00,Wunderground v.1.15,2013-07-26 09:30:00,
2013-07-26 05:40:00,79.2,76.0,30.00,WSW,257,2.0,2.0,90,0.00,,,0.00,Wunderground v.1.15,2013-07-26 09:40:00,
2013-07-26 05:49:00,79.1,75.9,30.00,West,263,2.0,2.0,90,0.00,,,0.00,Wunderground v.1.15,2013-07-26 09:49:00,
2013-07-26 06:00:00,79.1,75.9,29.99,WSW,252,2.0,2.0,90,0.00,,,0.00,Wunderground v.1.15,2013-07-26 10:00:00,
2013-07-26 06:10:00,79.0,75.8,30.00,West,267,2.0,3.0,90,0.00,,,0.00,Wunderground v.1.15,2013-07-26 10:10:00,
2013-07-26 06:19:00,79.0,75.8,30.00,WSW,257,2.0,2.0,90,0.00,,,0.00,Wunderground v.1.15,2013-07-26 10:19:00,
2013-07-26 06:29:00,79.0,75.8,30.01,WNW,288,2.0,3.0,90,0.00,,,0.00,Wunderground v.1.15,2013-07-26 10:29:00,
2013-07-26 06:40:00,79.0,75.8,30.00,West,274,2.0,4.0,90,0.00,,,0.00,Wunderground v.1.15,2013-07-26 10:40:00,
2013-07-26 06:50:00,79.0,75.8,30.01,WNW,297,2.0,3.0,90,0.00,,,0.00,Wunderground v.1.15,2013-07-26 10:50:00,
2013-07-26 07:00:00,79.0,76.1,30.01,West,259,2.0,3.0,91,0.00,,,0.00,Wunderground v.1.15,2013-07-26 11:00:00,
2013-07-26 07:09:00,79.2,76.0,30.01,West,260,2.0,2.0,90,0.00,,,0.00,Wunderground v.1.15,2013-07-26 11:09:00,
2013-07-26 07:15:00,79.2,76.0,30.01,West,260,3.0,3.0,90,0.00,,,0.00,Wunderground v.1.15,2013-07-26 11:15:00,
2013-07-26 07:25:00,79.4,76.2,30.01,WNW,283,3.0,3.0,90,0.00,,,0.00,Wunderground v.1.15,2013-07-26 11:25:00,
2013-07-26 07:34:00,79.6,76.1,30.01,WSW,249,3.0,4.0,89,0.00,,,0.00,Wunderground v.1.15,2013-07-26 11:34:00,
2013-07-26 07:45:00,79.9,76.4,30.01,WSW,250,3.0,3.0,89,0.00,,,0.00,Wunderground v.1.15,2013-07-26 11:45:00,
2013-07-26 07:55:00,80.3,76.4,30.02,West,263,4.0,4.0,88,0.00,,,0.00,Wunderground v.1.15,2013-07-26 11:55:00,
2013-07-26 08:00:00,80.5,76.3,30.01,West,278,4.0,4.0,87,0.00,,,0.00,Wunderground v.1.15,2013-07-26 12:00:00,
2013-07-26 08:10:00,80.9,76.7,30.02,WSW,240,3.0,4.0,87,0.00,,,0.00,Wunderground v.1.15,2013-07-26 12:10:00,
2013-07-26 08:19:00,81.2,76.3,30.02,WNW,294,4.0,4.0,85,0.00,,,0.00,Wunderground v.1.15,2013-07-26 12:19:00,
2013-07-26 08:25:00,81.5,76.6,30.02,West,279,4.0,5.0,85,0.00,,,0.00,Wunderground v.1.15,2013-07-26 12:25:00,
2013-07-26 08:35:00,82.0,76.7,30.02,West,264,4.0,4.0,84,0.00,,,0.00,Wunderground v.1.15,2013-07-26 12:35:00,
2013-07-26 08:44:00,82.2,76.5,30.02,SW,232,5.0,5.0,83,0.00,,,0.00,Wunderground v.1.15,2013-07-26 12:44:00,
2013-07-26 08:55:00,82.4,76.7,30.02,West,260,5.0,6.0,83,0.00,,,0.00,Wunderground v.1.15,2013-07-26 12:55:00,
2013-07-26 09:00:00,82.5,76.4,30.02,West,276,5.0,5.0,82,0.00,,,0.00,Wunderground v.1.15,2013-07-26 13:00:00,
2013-07-26 09:10:00,83.0,76.9,30.03,WNW,283,4.0,4.0,82,0.00,,,0.00,Wunderground v.1.15,2013-07-26 13:10:00,
2013-07-26 09:19:00,83.3,77.2,30.03,WNW,285,5.0,5.0,82,0.00,,,0.00,Wunderground v.1.15,2013-07-26 13:19:00,
2013-07-26 09:30:00,84.0,77.2,30.03,WSW,248,5.0,5.0,80,0.00,,,0.00,Wunderground v.1.15,2013-07-26 13:30:00,
2013-07-26 09:40:00,83.8,76.6,30.03,West,277,7.0,8.0,79,0.00,,,0.00,Wunderground v.1.15,2013-07-26 13:40:00,
2013-07-26 09:49:00,84.1,77.3,30.03,West,274,6.0,7.0,80,0.00,,,0.00,Wunderground v.1.15,2013-07-26 13:49:00,
2013-07-26 09:54:00,84.3,76.7,30.03,NW,307,6.0,7.0,78,0.00,,,0.00,Wunderground v.1.15,2013-07-26 13:54:00,
2013-07-26 10:00:00,84.4,76.8,30.02,WSW,256,5.0,5.0,78,0.00,,,0.00,Wunderground v.1.15,2013-07-26 14:00:00,
2013-07-26 10:09:00,84.7,76.3,30.02,WNW,288,5.0,5.0,76,0.00,,,0.00,Wunderground v.1.15,2013-07-26 14:09:00,
2013-07-26 10:20:00,84.7,76.3,30.02,West,263,5.0,5.0,76,0.00,,,0.00,Wunderground v.1.15,2013-07-26 14:20:00,
2013-07-26 10:29:00,84.8,76.8,30.02,WSW,239,5.0,5.0,77,0.00,,,0.00,Wunderground v.1.15,2013-07-26 14:29:00,
2013-07-26 10:39:00,84.7,76.7,30.02,West,271,5.0,8.0,77,0.00,,,0.00,Wunderground v.1.15,2013-07-26 14:39:00,
2013-07-26 10:45:00,84.7,76.3,30.02,WSW,257,5.0,8.0,76,0.00,,,0.00,Wunderground v.1.15,2013-07-26 14:45:00,
2013-07-26 10:55:00,84.8,77.2,30.02,WSW,250,5.0,5.0,78,0.00,,,0.00,Wunderground v.1.15,2013-07-26 14:55:00,
2013-07-26 11:00:00,84.9,76.9,30.02,SSW,207,4.0,8.0,77,0.00,,,0.00,Wunderground v.1.15,2013-07-26 15:00:00,
2013-07-26 11:10:00,84.8,76.8,30.02,WSW,246,5.0,5.0,77,0.00,,,0.00,Wunderground v.1.15,2013-07-26 15:10:00,
2013-07-26 11:19:00,84.9,76.9,30.02,West,263,5.0,5.0,77,0.00,,,0.00,Wunderground v.1.15,2013-07-26 15:19:00,
2013-07-26 11:30:00,85.4,77.8,30.02,West,269,4.0,4.0,78,0.00,,,0.00,Wunderground v.1.15,2013-07-26 15:30:00,
2013-07-26 11:39:00,85.7,77.3,30.01,SW,225,4.0,4.0,76,0.00,,,0.00,Wunderground v.1.15,2013-07-26 15:39:00,
2013-07-26 11:49:00,86.2,77.3,30.01,NW,309,4.0,4.0,75,0.00,,,0.00,Wunderground v.1.15,2013-07-26 15:49:00,
2013-07-26 11:55:00,86.2,76.9,30.01,WSW,238,4.0,4.0,74,0.00,,,0.00,Wunderground v.1.15,2013-07-26 15:55:00,
2013-07-26 12:00:00,86.4,76.7,30.01,West,260,4.0,5.0,73,0.00,,,0.00,Wunderground v.1.15,2013-07-26 16:00:00,
2013-07-26 12:10:00,86.7,77.0,30.01,WNW,291,4.0,4.0,73,0.00,,,0.00,Wunderground v.1.15,2013-07-26 16:10:00,
2013-07-26 12:19:00,87.0,77.3,30.01,WSW,240,4.0,9.0,73,0.00,,,0.00,Wunderground v.1.15,2013-07-26 16:19:00,
2013-07-26 12:30:00,87.0,76.5,30.01,SSW,204,5.0,6.0,71,0.00,,,0.00,Wunderground v.1.15,2013-07-26 16:30:00,
2013-07-26 12:39:00,87.1,77.0,30.01,West,259,5.0,6.0,72,0.00,,,0.00,Wunderground v.1.15,2013-07-26 16:39:00,
2013-07-26 12:49:00,87.6,77.0,30.01,WNW,293,4.0,9.0,71,0.00,,,0.00,Wunderground v.1.15,2013-07-26 16:49:00,
2013-07-26 13:00:00,87.5,76.5,30.00,West,271,5.0,5.0,70,0.00,,,0.00,Wunderground v.1.15,2013-07-26 17:00:00,
2013-07-26 13:10:00,88.4,75.1,30.00,West,266,4.0,4.0,65,0.00,,,0.00,Wunderground v.1.15,2013-07-26 17:10:00,
2013-07-26 13:19:00,88.7,75.4,30.00,WSW,252,5.0,7.0,65,0.00,,,0.00,Wunderground v.1.15,2013-07-26 17:19:00,
2013-07-26 13:29:00,89.5,76.6,29.99,West,259,4.0,4.0,66,0.00,,,0.00,Wunderground v.1.15,2013-07-26 17:29:00,
2013-07-26 13:35:00,89.9,76.6,30.00,WSW,249,3.0,11.0,65,0.00,,,0.00,Wunderground v.1.15,2013-07-26 17:35:00,
2013-07-26 13:45:00,89.3,76.0,29.99,SW,235,5.0,5.0,65,0.00,,,0.00,Wunderground v.1.15,2013-07-26 17:45:00,
2013-07-26 13:54:00,90.0,76.2,29.99,WNW,291,6.0,8.0,64,0.00,,,0.00,Wunderground v.1.15,2013-07-26 17:54:00,
2013-07-26 14:00:00,90.0,76.2,29.99,West,259,6.0,7.0,64,0.00,,,0.00,Wunderground v.1.15,2013-07-26 18:00:00,
2013-07-26 14:09:00,90.5,76.7,29.99,SW,232,4.0,6.0,64,0.00,,,0.00,Wunderground v.1.15,2013-07-26 18:09:00,
2013-07-26 14:15:00,90.4,76.6,29.99,West,263,4.0,9.0,64,0.00,,,0.00,Wunderground v.1.15,2013-07-26 18:15:00,
2013-07-26 14:24:00,90.8,76.5,29.98,West,259,5.0,8.0,63,0.00,,,0.00,Wunderground v.1.15,2013-07-26 18:24:00,
2013-07-26 14:34:00,90.9,76.1,29.98,WNW,291,5.0,6.0,62,0.00,,,0.00,Wunderground v.1.15,2013-07-26 18:34:00,
2013-07-26 14:40:00,90.8,76.5,29.98,West,280,5.0,5.0,63,0.00,,,0.00,Wunderground v.1.15,2013-07-26 18:40:00,
2013-07-26 14:50:00,90.7,76.8,29.97,WNW,294,5.0,6.0,64,0.00,,,0.00,Wunderground v.1.15,2013-07-26 18:50:00,
2013-07-26 15:00:00,91.0,76.7,29.97,WNW,285,4.0,5.0,63,0.00,,,0.00,Wunderground v.1.15,2013-07-26 19:00:00,
2013-07-26 15:09:00,91.3,77.4,29.97,WSW,243,5.0,6.0,64,0.00,,,0.00,Wunderground v.1.15,2013-07-26 19:09:00,
2013-07-26 15:20:00,91.0,76.7,29.97,WSW,243,4.0,5.0,63,0.00,,,0.00,Wunderground v.1.15,2013-07-26 19:20:00,
2013-07-26 15:30:00,91.5,77.1,29.97,WNW,285,4.0,4.0,63,0.00,,,0.00,Wunderground v.1.15,2013-07-26 19:30:00,
2013-07-26 15:35:00,91.8,77.9,29.96,WNW,283,4.0,6.0,64,0.00,,,0.00,Wunderground v.1.15,2013-07-26 19:35:00,
2013-07-26 15:44:00,92.3,76.9,29.96,WSW,243,3.0,4.0,61,0.00,,,0.00,Wunderground v.1.15,2013-07-26 19:44:00,
2013-07-26 15:55:00,92.2,76.8,29.95,WSW,238,4.0,4.0,61,0.00,,,0.00,Wunderground v.1.15,2013-07-26 19:55:00,
2013-07-26 16:00:00,91.4,76.5,29.95,WSW,257,4.0,4.0,62,0.00,,,0.00,Wunderground v.1.15,2013-07-26 20:00:00,
2013-07-26 16:10:00,91.8,76.4,29.95,West,269,3.0,4.0,61,0.00,,,0.00,Wunderground v.1.15,2013-07-26 20:10:00,
2013-07-26 16:19:00,92.0,75.6,29.95,East,87,4.0,4.0,59,0.00,,,0.00,Wunderground v.1.15,2013-07-26 20:19:00,
2013-07-26 16:30:00,92.2,76.8,29.95,West,262,3.0,7.0,61,0.00,,,0.00,Wunderground v.1.15,2013-07-26 20:30:00,
2013-07-26 16:40:00,91.6,75.7,29.94,SW,224,6.0,6.0,60,0.00,,,0.00,Wunderground v.1.15,2013-07-26 20:40:00,
2013-07-26 16:49:00,90.9,76.1,29.94,WSW,256,5.0,5.0,62,0.00,,,0.00,Wunderground v.1.15,2013-07-26 20:49:00,
2013-07-26 17:00:00,90.8,76.5,29.94,SSE,160,3.0,3.0,63,0.00,,,0.00,Wunderground v.1.15,2013-07-26 21:00:00,
2013-07-26 17:10:00,91.1,78.2,29.93,SW,236,4.0,6.0,66,0.00,,,0.00,Wunderground v.1.15,2013-07-26 21:10:00,
2013-07-26 17:20:00,87.9,76.5,29.94,South,183,7.0,7.0,69,0.00,,,0.00,Wunderground v.1.15,2013-07-26 21:20:00,
2013-07-26 17:29:00,87.6,77.0,29.94,SE,142,5.0,5.0,71,0.00,,,0.00,Wunderground v.1.15,2013-07-26 21:29:00,
2013-07-26 17:40:00,87.3,77.2,29.93,SSW,194,4.0,4.0,72,0.00,,,0.00,Wunderground v.1.15,2013-07-26 21:40:00,
2013-07-26 17:49:00,86.8,77.1,29.94,SE,143,4.0,7.0,73,0.00,,,0.00,Wunderground v.1.15,2013-07-26 21:49:00,
2013-07-26 18:00:00,86.2,77.7,29.93,SSW,198,7.0,7.0,76,0.00,,,0.00,Wunderground v.1.15,2013-07-26 22:00:00,
2013-07-26 18:09:00,86.6,78.5,29.93,SSE,147,4.0,4.0,77,0.00,,,0.00,Wunderground v.1.15,2013-07-26 22:09:00,
2013-07-26 18:15:00,87.2,79.5,29.94,SSE,157,3.0,7.0,78,0.55,,,0.03,Wunderground v.1.15,2013-07-26 22:15:00,
2013-07-26 18:25:00,84.9,78.8,29.93,SSW,198,6.0,10.0,82,0.10,,,0.08,Wunderground v.1.15,2013-07-26 22:25:00,
2013-07-26 18:34:00,82.9,77.6,29.94,SSE,162,7.0,9.0,84,0.04,,,0.08,Wunderground v.1.15,2013-07-26 22:34:00,
2013-07-26 18:45:00,82.8,78.2,29.98,North,5,6.0,8.0,86,0.00,,,0.08,Wunderground v.1.15,2013-07-26 22:45:00,
2013-07-26 18:55:00,80.5,75.6,29.97,NE,38,3.0,4.0,85,0.00,,,0.08,Wunderground v.1.15,2013-07-26 22:55:00,
2013-07-26 19:00:00,80.0,75.4,29.97,North,4,4.0,4.0,86,0.00,,,0.08,Wunderground v.1.15,2013-07-26 23:00:00,
2013-07-26 19:09:00,79.3,74.0,29.97,NNE,12,4.0,4.0,84,0.00,,,0.08,Wunderground v.1.15,2013-07-26 23:09:00,
2013-07-26 19:20:00,79.2,74.3,29.98,NNW,342,1.0,1.0,85,0.00,,,0.08,Wunderground v.1.15,2013-07-26 23:20:00,
2013-07-26 19:30:00,79.2,74.6,29.99,ENE,58,1.0,2.0,86,0.00,,,0.08,Wunderground v.1.15,2013-07-26 23:30:00,
2013-07-26 19:39:00,78.2,74.0,29.99,West,280,3.0,3.0,87,0.00,,,0.09,Wunderground v.1.15,2013-07-26 23:39:00,
2013-07-26 19:50:00,77.5,74.0,29.99,WSW,249,1.0,1.0,89,0.35,,,0.12,Wunderground v.1.15,2013-07-26 23:50:00,
2013-07-26 20:00:00,76.8,73.6,29.99,WNW,285,2.0,3.0,90,0.06,,,0.13,Wunderground v.1.15,2013-07-27 00:00:00,
2013-07-26 20:09:00,76.5,73.3,29.98,WSW,253,5.0,6.0,90,0.00,,,0.13,Wunderground v.1.15,2013-07-27 00:09:00,
2013-07-26 20:19:00,76.7,73.2,29.98,WNW,283,2.0,2.0,89,0.00,,,0.14,Wunderground v.1.15,2013-07-27 00:19:00,
2013-07-26 20:25:00,77.0,73.8,29.98,WSW,251,2.0,2.0,90,0.00,,,0.14,Wunderground v.1.15,2013-07-27 00:25:00,
2013-07-26 20:35:00,77.1,73.9,29.99,West,264,3.0,6.0,90,0.00,,,0.14,Wunderground v.1.15,2013-07-27 00:35:00,
2013-07-26 20:44:00,77.1,74.3,29.98,West,266,4.0,4.0,91,0.00,,,0.15,Wunderground v.1.15,2013-07-27 00:44:00,
2013-07-26 20:55:00,77.1,74.3,29.98,West,271,2.0,3.0,91,0.00,,,0.15,Wunderground v.1.15,2013-07-27 00:55:00,
2013-07-26 21:00:00,77.2,74.4,29.98,WNW,288,1.0,1.0,91,0.00,,,0.15,Wunderground v.1.15,2013-07-27 01:00:00,
2013-07-26 21:10:00,77.2,74.7,29.99,West,277,0.0,1.0,92,0.00,,,0.16,Wunderground v.1.15,2013-07-27 01:10:00,
2013-07-26 21:19:00,77.4,74.9,29.99,WSW,246,2.0,2.0,92,0.00,,,0.16,Wunderground v.1.15,2013-07-27 01:19:00,
2013-07-26 21:30:00,78.1,75.6,29.99,SW,235,0.0,0.0,92,0.00,,,0.16,Wunderground v.1.15,2013-07-27 01:30:00,
2013-07-26 21:40:00,78.4,75.9,30.00,SE,131,0.0,0.0,92,0.00,,,0.16,Wunderground v.1.15,2013-07-27 01:40:00,
2013-07-26 21:49:00,78.6,76.1,30.00,SE,137,0.0,0.0,92,0.00,,,0.17,Wunderground v.1.15,2013-07-27 01:49:00,
2013-07-26 21:55:00,78.5,75.7,30.00,SE,145,0.0,2.0,91,0.00,,,0.17,Wunderground v.1.15,2013-07-27 01:55:00,
2013-07-26 22:00:00,78.3,75.5,30.00,SW,224,1.0,2.0,91,0.00,,,0.17,Wunderground v.1.15,2013-07-27 02:00:00,
2013-07-26 22:10:00,78.3,75.5,30.00,SSW,194,1.0,2.0,91,0.00,,,0.17,Wunderground v.1.15,2013-07-27 02:10:00,
2013-07-26 22:19:00,78.5,75.7,30.01,SSW,202,1.0,1.0,91,0.00,,,0.17,Wunderground v.1.15,2013-07-27 02:19:00,
2013-07-26 22:29:00,78.5,75.7,30.01,West,264,0.0,1.0,91,0.00,,,0.17,Wunderground v.1.15,2013-07-27 02:29:00,
2013-07-26 22:40:00,78.6,75.8,30.01,SE,142,0.0,0.0,91,0.00,,,0.17,Wunderground v.1.15,2013-07-27 02:40:00,
2013-07-26 22:49:00,78.9,76.0,30.01,West,262,0.0,0.0,91,0.00,,,0.17,Wunderground v.1.15,2013-07-27 02:49:00,
2013-07-26 23:00:00,79.0,76.1,30.01,West,262,0.0,0.0,91,0.00,,,0.17,Wunderground v.1.15,2013-07-27 03:00:00,
2013-07-26 23:09:00,79.1,76.2,30.01,SW,235,0.0,0.0,91,0.00,,,0.17,Wunderground v.1.15,2013-07-27 03:09:00,
2013-07-26 23:15:00,79.1,76.2,30.01,SSE,166,0.0,0.0,91,0.00,,,0.17,Wunderground v.1.15,2013-07-27 03:15:00,
2013-07-26 23:24:00,79.2,76.3,30.01,South,190,0.0,0.0,91,0.00,,,0.17,Wunderground v.1.15,2013-07-27 03:24:00,
2013-07-26 23:34:00,79.3,76.8,30.01,SSE,165,0.0,0.0,92,0.00,,,0.17,Wunderground v.1.15,2013-07-27 03:34:00,
2013-07-26 23:45:00,79.4,76.5,30.01,WSW,246,0.0,0.0,91,0.00,,,0.17,Wunderground v.1.15,2013-07-27 03:45:00,
2013-07-26 23:54:00,79.4,76.2,30.01,South,191,0.0,0.0,90,0.00,,,0.17,Wunderground v.1.15,2013-07-27 03:54:00,